Location: Waco, TX
(31.5480°N, 97.1670°W)
Time: 16:36:39
(UTC-06:00)

ISS - Pass Details

Date: 18 November 2018
Orbit: 402 x 409 km, 51.6° (Epoch: 14 November)

Event Time Altitude Azimuth Distance (km) Brightness Sun altitude
Rises 21:12:04 0° 255° (WSW) 2,303 - -47.5°
Reaches altitude 10° 21:14:30 10° 273° (W) 1,447 - -48.0°
Maximum altitude 21:16:58 20° 323° (NW) 998 - -48.6°
Drops below altitude 10° 21:19:27 10° 13° (NNE) 1,451 - -49.1°
Sets 21:21:55 0° 31° (NNE) 2,312 - -49.6°
